User: anonymous   Login
Location: Unspecified
(64.9000°N, 0.0000°E)
Time: 03:20:41
(UTC+00:00)
Language:

Altair - Orbit

View from above orbital plane
View from above orbital plane
View from above satellite
View from above satellite

Ground track
Ground track

The orbit data is extracted from the following two-line orbital elements,

1    50U 60009B   19174.91084087 -.00000047 +00000-0 +35791-3 0  9999
2    50 047.2288 157.1660 0114237 333.7948 025.7091 12.20109635626321
Epoch (UTC): 23 June 2019 21:51:36
Eccentricity: 0.0114237
inclination: 47.2288°
perigee height: 1501 km
apogee height: 1683 km
right ascension of ascending node: 157.1660°
argument of perigee: 333.7948°
revolutions per day: 12.20109635
mean anomaly at epoch: 25.7091°
orbit number at epoch: 62632

The dashed part of the orbit path shows where the satellite is in the earth's shadow,  

DLR